Wind_Speed
18 2 11 15 7 15 11 9 13 16 15 16 17 19 19 20 24 26 31 29 32 27 22 36 32 30 27 52 50 44 42 40 37 33 36 33 27 25 19 16 15 13 11 9
10 15 16 18 17 14 21 12 14 13 15 15 20 20 22 20 18 28 29 29 33 30 20 32 46 34 26 40 43 41 38 36 32 37 37 33 32 26 24 19 16 13 12 9
14 19 20 11 11 12 16 11 16 15 16 13 17 20 17 20 22 30 35 34 35 36 25 33 43 42 43 23 41 44 40 37 33 31 34 28 28 24 27 18 20 14 12 9
9 7 15 4 7 11 17 17 6 9 18 11 5 7 13 16 17 19 25 29 34 37 27 37 39 42 38 34 35 40 38 37 33 33 36 28 28 28 25 20 17 16 13 12
13 18 19 19 14 14 14 2 3 8 10 9 10 3 10 15 15 13 16 26 36 37 30 46 49 47 35 40 39 36 37 37 36 35 34 29 29 25 25 22 18 18 18 14
17 29 17 16 9 12 6 3 2 5 3 6 12 9 8 11 18 13 13 24 32 35 36 38 42 49 35 35 41 37 40 42 40 38 34 33 32 28 24 22 21 18 17 16
12 10 8 6 5 6 5 5 3 3 3 6 4 10 15 9 15 18 20 22 31 35 37 42 47 50 45 49 48 47 48 46 43 39 35 33 32 30 24 19 18 16 14 13
9 9 4 9 8 3 2 3 2 4 3 4 7 11 11 19 23 21 31 29 32 34 38 45 47 47 48 50 46 44 42 42 41 38 35 32 30 26 21 19 16 15 13 12
5 6 14 14 8 10 3 6 4 4 8 4 5 8 9 19 19 15 24 26 25 27 21 42 44 39 36 37 40 39 38 36 38 38 33 31 30 26 23 20 16 15 12 8
3 8 8 16 12 14 5 5 1 2 4 2 8 8 10 8 17 16 25 24 31 34 34 29 48 44 35 37 42 39 37 37 36 40 32 30 30 25 22 20 18 14 7 3
3 3 14 14 2 4 1 2 4 2 4 3 4 4 7 9 11 14 21 37 42 35 39 32 46 46 40 48 36 37 39 37 37 40 36 33 27 22 19 19 15 10 5 2
4 4 8 19 18 10 14 3 7 4 4 4 2 6 10 22 19 13 18 39 44 37 44 34 43 44 40 44 46 42 40 39 41 43 38 31 29 24 23 19 12 9 6 10
5 3 7 10 9 5 6 3 8 1 2 6 5 6 12 17 23 19 20 33 40 38 26 29 42 47 45 37 31 33 46 47 44 39 36 32 28 25 21 16 12 10 13 16
1 2 6 6 13 15 19 13 13 7 4 2 5 14 15 22 27 24 24 25 29 26 29 31 38 41 39 33 27 23 47 45 41 35 31 31 26 23 19 16 16 19 19 17
2 4 11 17 21 15 10 22 6 7 9 6 13 18 17 17 21 19 31 35 27 33 37 39 44 38 35 32 34 38 38 39 37 31 21 26 21 22 23 24 25 23 19 15
5 5 15 14 14 16 11 25 16 11 13 12 17 17 10 20 18 22 28 30 29 26 37 43 47 42 40 41 23 42 34 26 28 30 33 32 31 28 26 26 24 21 18 14
3 4 6 6 18 19 9 18 14 18 17 7 8 4 7 7 13 24 23 31 25 27 27 28 27 25 33 34 26 24 21 26 26 34 35 32 30 29 29 26 24 20 16 13
6 6 4 6 10 4 5 15 15 14 18 21 16 13 11 8 12 31 31 21 22 24 26 29 39 31 19 29 34 36 38 38 35 33 31 30 30 30 29 24 21 18 13 9
4 4 4 3 4 6 10 16 13 10 6 18 19 19 17 11 18 21 24 17 19 21 15 24 26 28 34 35 36 36 37 34 31 29 32 31 30 29 26 24 20 16 11 9
10 3 2 4 4 2 1 18 30 6 1 17 21 18 13 1 3 2 11 19 23 29 28 26 24 27 31 35 35 34 32 31 33 33 32 30 28 28 25 21 18 15 11 13
6 4 2 5 3 5 10 24 19 6 6 24 23 19 16 4 5 8 9 19 24 26 28 32 33 29 29 32 34 36 37 37 35 34 32 29 26 24 22 20 16 14 16 16
1 4 3 4 3 5 17 11 6 3 10 18 20 8 12 12 11 10 14 18 28 31 31 31 34 34 32 34 36 40 37 34 33 31 27 24 23 23 19 17 21 21 18 16
1 3 3 2 3 2 6 5 6 11 17 17 20 5 8 12 11 14 15 17 22 31 33 34 35 33 32 34 35 38 34 31 28 28 29 26 24 24 25 26 22 20 16 15
4 7 3 4 1 6 9 5 7 13 19 17 12 7 6 13 12 15 19 18 21 22 27 29 31 33 32 29 31 30 31 31 31 29 28 28 27 26 25 21 19 19 19 18
7 6 4 2 2 9 4 4 4 14 16 14 8 10 4 10 14 16 19 21 21 22 22 23 27 30 31 31 31 32 30 29 29 29 29 26 24 21 21 20 19 17 14 10
13 2 2 2 3 4 5 9 6 9 14 5 4 5 5 8 15 16 18 21 22 22 21 23 25 28 31 34 33 30 26 25 27 29 26 22 19 18 16 16 18 13 9 10
Wind_Direction
287 184 262 270 284 304 291 285 278 286 291 286 285 285 289 246 243 257 259 256 257 260 226 182 190 161 164 177 179 182 180 183 186 185 189 187 187 184 184 196 213 214 218 224
295 264 257 248 289 266 297 262 269 282 284 289 287 278 284 276 221 237 248 258 247 247 228 192 187 207 215 167 176 184 187 187 194 194 197 199 199 190 191 193 203 207 206 229
284 287 295 209 261 307 273 278 291 283 288 276 285 282 275 285 222 233 238 243 259 240 203 190 166 179 195 237 185 184 190 191 193 195 194 196 192 192 192 184 188 192 215 236
281 323 314 352 243 243 282 265 287 319 303 278 248 291 291 270 233 221 231 237 246 236 231 187 172 169 191 212 227 183 189 193 197 190 191 190 193 188 194 189 191 192 215 218
265 290 297 279 229 245 254 36 239 238 278 306 268 248 262 261 253 216 219 223 239 225 225 176 167 178 184 186 213 201 198 197 198 193 189 187 190 192 194 190 192 205 214 214
284 287 264 251 274 237 118 359 293 239 197 249 225 200 257 231 226 218 213 224 230 216 217 179 175 174 190 187 209 208 202 203 198 196 196 192 196 195 191 198 201 202 205 215
322 326 55 14 289 227 89 44 329 329 181 237 177 193 238 269 226 207 217 218 234 205 202 170 169 175 179 189 199 199 203 201 198 196 196 192 191 197 194 194 199 201 206 211
351 329 46 348 286 298 105 162 164 276 269 325 298 233 234 240 254 220 217 214 223 197 183 172 183 191 190 190 196 194 195 197 198 195 186 183 191 191 189 199 196 202 195 207
324 280 331 294 324 150 150 215 186 229 256 271 253 250 286 225 237 234 211 216 221 219 205 177 178 184 182 192 195 196 194 191 187 179 177 185 189 191 192 183 196 198 196 188
281 288 299 316 314 34 141 134 206 187 307 285 270 214 220 215 230 240 204 206 214 220 221 202 172 177 177 195 194 195 192 184 178 173 177 182 188 187 191 191 185 177 154 235
268 220 293 296 353 246 294 153 79 256 254 258 304 284 27 344 295 278 243 199 207 209 219 206 173 188 200 193 194 187 184 182 173 175 177 181 175 185 183 182 172 172 192 253
106 295 294 297 299 280 199 190 160 177 286 257 260 292 348 344 305 276 191 189 198 208 220 202 168 174 180 183 185 189 180 174 173 179 179 179 184 183 176 166 164 174 188 175
355 5 306 336 340 58 48 309 259 34 113 11 348 278 345 325 356 342 191 179 197 206 211 141 156 170 177 170 177 190 176 172 175 177 178 182 169 164 160 162 163 169 160 148
163 269 274 312 286 283 291 258 244 247 100 250 221 288 322 346 4 357 7 180 194 208 147 125 149 145 164 173 199 153 166 171 173 176 163 155 156 154 151 146 151 151 147 152
257 252 285 297 291 314 356 20 15 259 149 51 337 11 16 356 358 335 40 45 107 122 112 112 130 142 150 146 158 147 155 150 151 150 179 162 148 142 144 149 147 147 151 157
294 294 314 311 308 329 23 22 40 91 112 91 60 32 332 2 346 16 38 45 58 86 102 116 121 125 140 163 163 154 142 139 142 149 149 147 146 140 143 145 146 148 152 154
260 320 312 282 314 309 30 25 24 38 30 42 70 77 74 318 16 21 8 34 43 78 106 121 126 136 138 152 161 166 144 157 154 144 143 139 140 142 144 146 149 149 150 150
307 307 256 281 318 38 143 41 38 29 10 1 10 20 99 82 61 44 44 52 29 92 105 120 138 154 162 156 154 155 152 151 146 141 141 146 146 143 147 146 146 143 147 145
342 298 306 309 291 290 51 359 342 3 336 358 351 355 356 137 51 32 48 80 73 107 138 132 130 141 158 155 149 141 142 139 139 143 145 144 146 147 144 144 148 146 142 120
337 285 300 323 322 283 88 339 323 264 229 354 345 348 353 31 115 296 58 108 117 123 136 134 147 149 147 142 142 140 135 138 139 141 142 145 147 146 146 145 140 129 117 109
338 326 259 339 318 316 349 329 326 61 308 323 331 355 27 60 67 119 84 97 116 125 128 135 143 145 137 136 138 131 132 133 135 142 148 149 152 146 140 136 127 115 107 103
300 313 340 335 322 330 359 346 36 268 307 324 329 25 93 100 103 106 111 113 120 124 126 133 134 131 129 135 140 137 138 142 148 148 147 143 140 134 129 121 113 107 102 103
286 234 282 232 268 309 330 312 351 338 336 330 330 23 112 120 122 125 128 128 133 131 132 133 140 144 145 144 146 142 141 148 151 147 135 126 123 125 124 120 120 120 118 111
264 228 254 332 178 274 225 347 1 353 339 340 340 160 157 138 140 134 141 144 142 144 140 144 144 145 144 150 149 149 149 145 143 139 138 141 144 138 136 138 142 142 141 142
258 285 266 246 282 304 212 344 343 348 349 21 75 144 145 149 150 148 148 148 149 146 149 151 149 149 150 153 153 149 148 147 145 143 145 147 144 146 145 146 150 155 144 147
245 169 198 235 347 272 317 344 355 349 349 357 97 133 120 163 153 156 150 154 155 155 155 154 148 141 141 143 141 143 146 149 146 143 144 141 139 143 149 155 150 144 127 124
Height
1465 1470 1476 1461 1455 1454 1447 1446 1444 1438 1435 1437 1435 1428 1421 1414 1412 1408 1410 1408 1410 1415 1419 1419 1428 1430 1437 1440 1441 1449 1455 1462 1469 1476 1487 1493 1498 1502 1507 1509 1510 1514 1516 1516
1463 1461 1453 1453 1453 1454 1451 1443 1441 1435 1433 1436 1430 1424 1417 1412 1405 1403 1404 1405 1404 1409 1413 1414 1421 1429 1440 1437 1441 1449 1455 1460 1468 1474 1484 1491 1495 1498 1503 1505 1509 1511 1513 1515
1457 1447 1442 1451 1452 1454 1448 1444 1441 1440 1432 1430 1431 1423 1415 1403 1396 1396 1395 1399 1400 1403 1409 1411 1419 1422 1434 1414 1442 1438 1450 1460 1468 1473 1479 1488 1494 1498 1500 1502 1503 1507 1512 1513
1451 1440 1439 1449 1458 1460 1459 1435 1439 1443 1446 1438 1426 1447 1420 1402 1391 1389 1390 1391 1396 1396 1401 1410 1414 1419 1417 1431 1433 1428 1448 1459 1467 1470 1476 1484 1490 1494 1499 1501 1502 1508 1510 1510
1446 1442 1439 1435 1438 1439 1439 1429 1433 1435 1439 1436 1427 1437 1412 1398 1389 1385 1385 1389 1390 1391 1397 1405 1414 1423 1426 1432 1441 1445 1452 1458 1466 1469 1473 1481 1488 1492 1496 1499 1501 1507 1507 1508
1444 1433 1432 1424 1420 1426 1429 1433 1432 1431 1434 1438 1420 1431 1408 1392 1382 1379 1377 1382 1386 1389 1394 1402 1408 1420 1425 1430 1436 1445 1452 1457 1461 1466 1472 1478 1483 1488 1492 1497 1499 1501 1504 1504
1441 1428 1419 1418 1422 1423 1435 1438 1442 1444 1439 1433 1403 1416 1396 1376 1372 1370 1369 1374 1377 1383 1389 1397 1406 1415 1423 1428 1434 1438 1445 1450 1454 1461 1467 1473 1477 1482 1487 1492 1495 1496 1498 1501
1456 1445 1423 1423 1427 1431 1434 1443 1444 1442 1427 1420 1399 1395 1381 1372 1371 1367 1365 1369 1374 1376 1380 1387 1395 1403 1412 1420 1428 1433 1437 1444 1452 1459 1466 1471 1476 1481 1486 1488 1491 1492 1494 1496
1465 1446 1428 1417 1418 1425 1437 1442 1429 1442 1432 1438 1407 1374 1367 1361 1362 1365 1361 1366 1369 1373 1377 1383 1393 1405 1416 1421 1426 1432 1438 1444 1453 1461 1467 1470 1474 1479 1482 1486 1488 1491 1492 1494
1464 1458 1429 1415 1410 1423 1423 1423 1433 1439 1420 1415 1389 1374 1376 1364 1361 1358 1359 1360 1364 1369 1374 1382 1390 1402 1410 1419 1422 1431 1440 1446 1452 1461 1465 1470 1472 1476 1481 1484 1486 1489 1493 1496
1455 1461 1434 1424 1411 1419 1428 1427 1433 1436 1429 1419 1411 1383 1367 1372 1370 1364 1350 1351 1356 1363 1370 1380 1380 1390 1403 1417 1426 1432 1441 1448 1452 1458 1461 1466 1471 1475 1478 1481 1484 1489 1493 1495
1458 1459 1446 1429 1408 1395 1412 1421 1419 1422 1423 1420 1413 1391 1367 1366 1360 1345 1334 1343 1352 1362 1363 1376 1378 1393 1407 1414 1421 1429 1433 1442 1446 1452 1456 1463 1468 1473 1478 1481 1483 1488 1492 1497
1460 1462 1450 1429 1404 1402 1415 1419 1415 1413 1419 1417 1409 1400 1376 1376 1351 1332 1332 1341 1350 1357 1367 1369 1378 1388 1401 1409 1417 1424 1423 1429 1438 1449 1456 1458 1466 1470 1475 1479 1484 1490 1495 1498
1461 1463 1456 1456 1448 1436 1422 1414 1407 1414 1415 1422 1418 1404 1388 1386 1370 1361 1347 1342 1350 1359 1365 1362 1376 1391 1403 1405 1415 1425 1402 1427 1433 1447 1455 1462 1466 1469 1474 1480 1486 1492 1498 1501
1458 1458 1448 1439 1424 1410 1417 1404 1397 1401 1407 1411 1410 1401 1401 1395 1386 1387 1362 1360 1360 1363 1367 1375 1378 1391 1402 1409 1414 1420 1426 1431 1437 1442 1455 1466 1469 1472 1476 1484 1489 1494 1499 1503
1457 1457 1441 1426 1409 1409 1406 1413 1404 1407 1409 1409 1411 1410 1413 1392 1402 1385 1375 1381 1382 1382 1382 1390 1397 1404 1409 1414 1426 1409 1425 1436 1439 1447 1460 1467 1474 1475 1480 1487 1491 1495 1500 1504
1460 1455 1451 1439 1415 1406 1421 1428 1427 1416 1418 1418 1415 1419 1417 1414 1403 1397 1391 1388 1396 1392 1397 1382 1395 1404 1417 1425 1420 1434 1428 1436 1442 1453 1463 1466 1472 1476 1483 1488 1492 1496 1501 1505
1455 1455 1449 1443 1427 1425 1433 1432 1428 1428 1421 1419 1414 1409 1413 1414 1412 1405 1401 1402 1405 1410 1403 1403 1402 1410 1419 1429 1431 1432 1434 1441 1451 1456 1463 1469 1475 1481 1487 1490 1496 1499 1502 1506
1453 1452 1456 1449 1444 1425 1430 1432 1435 1437 1429 1427 1420 1414 1411 1410 1410 1411 1416 1416 1414 1414 1414 1408 1412 1421 1424 1428 1433 1433 1440 1444 1452 1461 1468 1475 1481 1485 1488 1494 1499 1500 1501 1505
1455 1449 1454 1445 1443 1443 1439 1433 1426 1427 1431 1428 1425 1418 1415 1417 1421 1429 1427 1423 1424 1424 1422 1420 1419 1430 1435 1433 1434 1438 1443 1451 1459 1468 1474 1479 1486 1490 1492 1496 1498 1499 1504 1507
1462 1455 1456 1449 1449 1437 1436 1430 1422 1434 1443 1433 1430 1426 1422 1423 1428 1429 1427 1425 1421 1422 1426 1425 1427 1438 1440 1440 1441 1444 1452 1459 1465 1472 1477 1484 1492 1493 1493 1494 1498 1503 1506 1510
1470 1466 1460 1453 1454 1454 1442 1434 1436 1449 1444 1437 1430 1431 1430 1430 1430 1430 1431 1432 1432 1432 1431 1433 1436 1441 1447 1444 1446 1450 1458 1469 1475 1479 1484 1488 1491 1490 1494 1497 1503 1507 1512 1516
1469 1465 1464 1461 1459 1452 1450 1447 1444 1441 1438 1435 1431 1429 1430 1431 1433 1434 1432 1434 1436 1438 1440 1442 1443 1446 1451 1454 1457 1460 1469 1474 1479 1482 1485 1488 1490 1494 1499 1501 1506 1511 1517 1517
1459 1457 1458 1456 1454 1452 1451 1449 1447 1443 1440 1434 1431 1431 1431 1432 1434 1435 1436 1437 1439 1440 1442 1445 1448 1452 1454 1458 1462 1468 1473 1477 1478 1479 1482 1489 1495 1496 1501 1506 1512 1513 1514 1513
1459 1455 1452 1452 1452 1450 1450 1449 1447 1444 1442 1437 1434 1434 1434 1434 1435 1436 1438 1440 1442 1445 1449 1452 1453 1454 1456 1461 1467 1472 1475 1477 1480 1485 1492 1497 1498 1502 1504 1507 1511 1512 1513 1514
1450 1449 1452 1454 1450 1450 1448 1448 1446 1444 1442 1440 1439 1438 1439 1438 1437 1438 1439 1441 1443 1446 1450 1453 1456 1458 1462 1466 1470 1474 1479 1484 1488 1490 1494 1496 1498 1500 1505 1509 1510 1512 1513 1514